Showing default

COSMOS 2553, 51511

Orbit data source: Space-Track

COSMOS 2553, 51511 is a payload satellite owned by VVKO VKS (CIS) in LEO that was launched on Sat, 05 Feb 2022 UTC via a SOYUZ-2-1A launch vehicle from the Plesetsk Missile And Space Complex (PKMTR). Payloads include a variety of satellites, spacecraft, and rockets equipped with specific instruments for various scientific and technological missions. These include communications satellites like Starlink; space stations such as the ISS; scientific satellites like the Hubble; Earth observation satellites from companies like Planet Labs, Umbra, and HawkEye 360; GPS; miniature CubeSats for education and research; and military/defense satellites.

Loading next visibility...
COSMOS 2553 details
Identifier
51511, 2022-011A
Orbit
LEO
Last TLE update14 hours ago
Origin
Flag of CISVVKO VKS (CIS)
ManufacturerResehetnev ISS
MissionOperational Defense Radar Imaging
Bus & MotorMERIDIAN, Unknown motor
Mass~2,000 kg wet, ~2,000 kg dry
Launch date (UTC)
2022-02-05 (3 years ago)
Launch vehicle
SOYUZ-2-1A
Launch site
Plesetsk Missile And Space Complex (PKMTR)
Object type
Payload
Rocket body
Debris
Shape & HBRBox + 2 Pan, 10 m
Radar Cross Section14.304 m², Large (>1 m²)

Expand to show TLE details & history

TLE from 14 hours ago
0 COSMOS 2553
1 51511U 22011A   24355.92757867 -.00000084  00000-0 -13536-2 0  9993
2 51511  67.0922  99.7012 0003383 262.4820  97.5739 11.32861676118900
Epoch: 2024-12-20T22:15Z
Definitive object data (Epoch: 2024-12-20T22:15:42.797Z)
Latitude0.00004°
Longitude35.78683°
Altitude1,998.408 km
Speed6.899 km/s
True Right ascension06h 38m 48s
True Declination0° 00' 00"
Sunlit
Object was in full shadow at TLE epoch
Visualization TLE readout
Latitude-27.43324°
Longitude-132.47013°
Altitude2,003.7 km
Speed6.897 km/s
Apparent Right ascension20h 54m 25s
Apparent Declination-35° 57' 57"
Sunlit
Object is in daylight
Visualization observer readout
Local Sidereal Time11:14:18
Azimuth93.07° ESE
Elevation-62.318°
Doppler factor1
Orbital elements
Apogee altitude1,997.606 km
Perigee altitude1,991.941 km
Semi-major axis8,372.911 km
Eccentricity0.0003383
Inclination67.0922°
RAAN99.7012°
Arg. of periapsis262.482°
True anomaly97.61233°
Mean anomaly97.5739°
Eccentric anomaly97.59311°
Mean motion2.83288 °/min
BSTAR-0.0013536
Orbital period127.08 mins
Loading maneuver chart data...
Loading historical data...
Loading historical data...
Loading historical data...
Loading historical data...
Loading historical data...
Loading historical data...
Loading historical data...
Other satellites on launch #11 in the year 2022 (2022-02-05 UTC)

COSMOS 2553 Visibility forecast

Observer location: undefined°, undefined

Span
Click to sort rows by Start time (UTC) header in descending order
Start Az.
Max El. time (UTC)
Max El. Az.
Max El.
End time (UTC)
End Az.
11 mins2024-12-21 13:32:32.810Z332.131° NNW2024-12-21 13:37:32.810Z0.179° NNE15.095°2024-12-21 13:43:32.810Z33.545° NE
17 mins2024-12-21 15:46:32.810Z344.276° N2024-12-21 15:54:32.810Z35.432° NE26.252°2024-12-21 16:03:32.810Z92.119° ESE
21 mins2024-12-21 17:57:32.810Z331.14° NNW2024-12-21 18:07:32.810Z342.36° N44.963°2024-12-21 18:18:32.810Z154.116° SSE
13 mins2024-12-21 20:11:32.810Z299.322° NW2024-12-21 20:17:32.810Z262.806° W20.287°2024-12-21 20:24:32.810Z221.855° SW
9 mins2024-12-22 06:11:32.810Z115.386° SE2024-12-22 06:15:32.810Z92.761° ESE14.441°2024-12-22 06:20:32.810Z65.359° ENE
21 mins2024-12-22 08:14:32.810Z194.523° SSW2024-12-22 08:24:32.810Z116.366° SE43.846°2024-12-22 08:35:32.810Z32.03° NE
18 mins2024-12-22 10:28:32.810Z259.52° W2024-12-22 10:36:32.810Z313.142° NW30.199°2024-12-22 10:46:32.810Z19.526° NNE
|